Orbital Elements
Epoch 2023 Feb. 25.0 TT = JDT 2460000.5
T 2022 Sept. 28.24505 TT Rudenko
q 1.5915365 (2000.0) P Q
z +0.0017697 Peri. 59.85264 -0.16155383 -0.67252690
+/-0.0000016 Node 300.02793 -0.90482670 +0.39308137
e 0.9971835 Incl. 123.46865 +0.39394036 +0.62705231
>From 413 observations 2022 May 31-2023 Jan. 19, mean residual 0".6.
|